West Memphis, AR

5:25 AM CDT on March 28, 2017 (GMT -0500)
West Memphis Municipal

Weather History for KAWM - March, 2013

Change the Weather History Date:

Tuesday, March 26, 2013

  Actual Average Record
Temperature  
Mean Temperature 38 °F -  
Max Temperature 46 °F 61 °F 81 °F (2007)
Min Temperature 30 °F 43 °F 27 °F (2014)
Degree Days  
Heating Degree Days 28    
Moisture  
Dew Point 26 °F    
Average Humidity 64    
Maximum Humidity 82    
Minimum Humidity 45    
Precipitation  
Precipitation 0.00 in - - ()
Sea Level Pressure  
Sea Level Pressure 30.35 in    
Wind  
Wind Speed 8 mph (NW)    
Max Wind Speed 12 mph    
Max Gust Speed 17 mph    
Visibility 10 miles    
Events      
Averages and records for this station are not official NWS values.
T = Trace of Precipitation, MM = Missing Value Source: NWS Daily Summary

Daily Weather History Graph

Daily Weather History Graph

Search for Another Location

Airport or City:

Trip Planner

Search our weather history database for the weather conditions in past years. The results will help you decide how hot, cold, wet, or windy it might be!

Date:

Astronomy

Mar. 26, 2013 Rise Set
Actual Time 6:55 AM CDT 7:17 PM CDT
Civil Twilight 6:30 AM CDT 7:43 PM CDT
Nautical Twilight 6:00 AM CDT 8:12 PM CDT
Astronomical Twilight 5:30 AM CDT 8:43 PM CDT
Moon 6:54 PM CDT (3/26) 6:11 AM CDT (3/26)
Length of Visible Light 13h 12m
Length of Day
12h 21m
Waxing Gibbous, 99% of the Moon is Illuminated
Mar 26
Waxing Gibbous
Mar 27
Full
Apr 2
Last Quarter
Apr 10
New
Apr 18
First Quarter

Hourly Weather History & Observations

Time (CDT) Temp. Windchill Dew Point Humidity Pressure Visibility Wind Dir Wind Speed Gust Speed Precip Events Conditions
12:53 AM 34.0 °F 25.5 °F 23.0 °F 64% 30.28 in 10.0 mi NW 11.5 mph - N/A   Partly Cloudy
1:53 AM 33.1 °F 26.9 °F 23.0 °F 66% 30.28 in 10.0 mi NW 6.9 mph - N/A   Partly Cloudy
2:53 AM 32.0 °F 24.8 °F 23.0 °F 69% 30.27 in 10.0 mi NW 8.1 mph - N/A   Clear
3:53 AM 30.9 °F 24.3 °F 23.0 °F 72% 30.27 in 10.0 mi NW 6.9 mph - N/A   Mostly Cloudy
4:53 AM 32.0 °F 24.2 °F 24.1 °F 73% 30.28 in 10.0 mi NW 9.2 mph - N/A   Mostly Cloudy
5:53 AM 30.9 °F 25.2 °F 24.1 °F 76% 30.29 in 10.0 mi NW 5.8 mph - N/A   Clear
6:53 AM 30.9 °F 24.3 °F 24.1 °F 76% 30.31 in 10.0 mi NW 6.9 mph - N/A   Clear
7:53 AM 32.0 °F 24.2 °F 25.0 °F 75% 30.33 in 10.0 mi NW 9.2 mph - N/A   Clear
8:53 AM 35.1 °F 27.4 °F 27.0 °F 72% 30.36 in 10.0 mi NW 10.4 mph 17.3 mph N/A   Clear
9:53 AM 37.0 °F 31.0 °F 27.0 °F 67% 30.38 in 10.0 mi NNW 8.1 mph 17.3 mph N/A   Partly Cloudy
10:36 AM 39.2 °F 33.6 °F 28.4 °F 65% 30.38 in 10.0 mi North 8.1 mph - N/A   Mostly Cloudy
10:53 AM 39.9 °F 33.9 °F 28.9 °F 65% 30.39 in 10.0 mi NNW 9.2 mph - N/A   Mostly Cloudy
11:33 AM 39.2 °F 35.0 °F 28.4 °F 65% 30.38 in 10.0 mi Variable 5.8 mph - N/A   Mostly Cloudy
11:53 AM 41.0 °F 38.0 °F 28.0 °F 60% 30.39 in 10.0 mi NW 4.6 mph - N/A   Mostly Cloudy
12:53 PM 42.1 °F 37.1 °F 27.0 °F 55% 30.39 in 10.0 mi NNW 8.1 mph - N/A   Overcast
1:53 PM 45.0 °F 40.1 °F 28.0 °F 52% 30.38 in 10.0 mi NW 9.2 mph - N/A   Mostly Cloudy
2:53 PM 45.0 °F 39.7 °F 26.1 °F 48% 30.37 in 10.0 mi NNW 10.4 mph - N/A   Scattered Clouds
3:53 PM 45.0 °F 41.2 °F 26.1 °F 48% 30.36 in 10.0 mi WNW 6.9 mph - N/A   Partly Cloudy
4:53 PM 45.0 °F 41.2 °F 26.1 °F 48% 30.35 in 10.0 mi North 6.9 mph - N/A   Mostly Cloudy
5:53 PM 45.0 °F 41.2 °F 25.0 °F 46% 30.35 in 10.0 mi NW 6.9 mph - N/A   Clear
6:53 PM 44.1 °F - 24.1 °F 45% 30.35 in 10.0 mi Calm Calm - N/A   Clear
7:53 PM 39.0 °F - 30.0 °F 70% 30.36 in 10.0 mi Calm Calm - N/A   Clear
8:53 PM 39.0 °F - 27.0 °F 62% 30.37 in 10.0 mi Calm Calm - N/A   Clear
9:53 PM 37.0 °F 33.3 °F 27.0 °F 67% 30.37 in 10.0 mi South 4.6 mph - N/A   Clear
10:53 PM 36.0 °F 32.1 °F 27.0 °F 70% 30.37 in 10.0 mi South 4.6 mph - N/A   Clear
11:53 PM 33.1 °F 28.7 °F 28.0 °F 82% 30.37 in 10.0 mi South 4.6 mph - N/A   Clear